Regional Weather Roundup
Issued by NWS Sioux Falls, SD

Home | Current Version | Previous Version | Text Only | Print | Product List | Glossary On
Versions: 1 2 3 4 5 6 7 8 9 10 11 12 13 14 15 16 17 18 19 20 21 22 23 24 25 26 27 28 29 30 31 32 33 34 35 36 37 38 39 40 41 42 43 44 45 46 47 48 49 50
000
ASUS43 KFSD 211110
RWRFSD

WEATHER ROUNDUP FOR SE SOUTH DAKOTA/SW MINNESOTA/NW IOWA
NATIONAL WEATHER SERVICE SIOUX FALLS SD
500 AM CST SAT JAN 21 2017

NOTE: "FAIR" INDICATES FEW OR NO CLOUDS BELOW 12,000 FEET WITH NO
SIGNIFICANT WEATHER AND OR OBSTRUCTIONS TO VISIBILITY.


SDZ038>040-050-052>070-211200-
SOUTHEAST SOUTH DAKOTA

CITY           SKY/WX    TMP DP  RH WIND       PRES   REMARKS
BROOKINGS      MIX PCPN  36  34  93 SE12      29.32F FOG
CHAMBERLAIN    CLOUDY    26  26  99 SW8       29.34S FOG     WCI  18
HURON          CLOUDY    25  24  96 NW10      29.33S WCI  15
MADISON        CLOUDY    32  32 100 S7          N/A  WCI  26
MITCHELL       MOCLDY    34  32  92 W3        29.34S
SIOUX FALLS    FOG       36  36 100 SE7       29.34F VSB 1/4
WINNER         CLOUDY    28  25  88 W6        29.35R WCI  22
YANKTON        PTCLDY    37  36  93 CALM      29.33S
$$

MNZ071-072-080-081-089-090-097-098-211200-
SOUTHWEST MINNESOTA

CITY           SKY/WX    TMP DP  RH WIND       PRES   REMARKS
FAIRMONT       LGT RAIN  34  34 100 E6        29.38F FOG     WCI  29
JACKSON        FOG       32  32 100 E5        29.37F VSB 1/2 WCI  27
LUVERNE        DRIZZLE   34  32  93 SE3       29.36F
MARSHALL       LGT SNOW  33  33 100 SE8       29.38F FOG     WCI  26
MONTEVIDEO     FOG       34  34 100 SE9       29.40F VSB 1   WCI  26
PIPESTONE      DRZL/FOG  36  36 100 SE8       29.34S VSB 3/4
REDWOOD FALLS  FOG       34  33  96 E7        29.39F VSB 1/4 WCI  28
TRACY          DRIZZLE   34  34 100 SE6       29.37F WCI  29
WINDOM         HVY RAIN  34  34 100 E5        29.37F VSB 1/2 WCI  30
WORTHINGTON    FOG       33  33 100 SE3       29.36F VSB 1/4
$$

IAZ001>003-012>014-020>022-031-032-NEZ013-014-SDZ071-211200-
NORTHWEST IOWA

CITY           SKY/WX    TMP DP  RH WIND       PRES   REMARKS
CHEROKEE       FOG       35  35 100 CALM      29.36F VSB 3/4
DENISON        MIX PCPN  37  37 100 CALM      29.34S VSB 1/4
ESTHERVILLE    FOG       33  33 100 E3        29.37F VSB 1/2
LE MARS        FOG       37  37 100 S3        29.36F VSB 1/2
ORANGE CITY    DRZL/FOG  36  36 100 CALM      29.35F VSB 1/2
SHELDON        FOG       34  34 100 SE3       29.34S VSB 3/4
SIOUX CITY     FOG       38  37  97 SE6       29.36S VSB 3/4
SPENCER        FOG       35  35 100 E3        29.36F VSB 1/4
STORM LAKE     FOG       34  34 100 CALM      29.35F VSB 1/4
$$

ABBREVIATIONS USED IN REMARKS
   TC - TEMPERATURE IN CELSIUS
  WCI - WIND CHILL INDEX
   HX - HEAT INDEX
  VSB - VISIBILITY




USA.gov is the U.S. government's official web portal to all federal, state and local government web resources and services.